Date_and_time,latitude,longitude,wind_speed,RelWindDirFrom,WindDirFrom,air_pressure,air_temperature,relative_humidity,Temp,platform_speed_wrt_ground,air_pressure_at_mean_sea_level,platform_orientation
2018-08-28 23:50,50.630435,-96.9807683333333,8.8,11.6,148,987.21,15.8,59,17.95,0.0,1013.53,3.2
2018-08-29 00:00,50.630435,-96.98077,10.4,13.2,149,987.22,15.7,59,17.94,0.0,1013.53,68.5
2018-08-29 00:10,50.630435,-96.98077,10.2,12.8,148,987.25,15.8,59,17.93,0.0,1013.56,68.5
2018-08-29 00:20,50.6304366666667,-96.98077,10.8,12.7,147,987.23,15.8,58,17.93,0.0,1013.53,68.5
2018-08-29 00:30,50.6304316666667,-96.980765,10.1,12.4,148,987.23,15.9,59,17.93,0.0,1013.53,68.5
2018-08-29 00:40,50.6304316666667,-96.9807633333333,9.9,13.0,158,987.27,16.0,60,17.94,0.0,1013.57,68.5
2018-08-29 00:50,50.6304366666667,-96.98077,9.7,12.5,158,987.26,16.1,63,17.94,0.0,1013.55,68.5
2018-08-29 01:00,50.6304416666667,-96.98077,9.3,12.0,156,987.26,16.2,63,17.94,0.0,1013.55,90.0
2018-08-29 01:10,50.630445,-96.98077,9.1,11.9,162,987.23,16.3,64,17.94,0.0,1013.51,90.0
2018-08-29 01:20,50.6304466666667,-96.9807666666667,8.2,10.1,170,987.29,16.3,64,17.94,0.0,1013.58,90.0
2018-08-29 01:30,50.6304483333333,-96.9807666666667,8.2,9.8,171,987.36,16.1,63,17.94,0.0,1013.66,90.0
2018-08-29 01:40,50.63045,-96.9807666666667,7.9,9.2,172,987.40,16.1,64,17.94,0.0,1013.70,90.0
2018-08-29 01:50,50.630445,-96.9807466666667,8.5,10.7,174,987.41,15.8,67,17.94,0.0,1013.72,90.0
2018-08-29 02:00,50.6304483333333,-96.9807716666667,8.2,9.9,175,987.50,15.6,70,17.94,0.0,1013.82,38.0
2018-08-29 02:10,50.63045,-96.9807683333333,7.8,9.8,193,987.68,15.1,75,17.94,0.0,1014.02,38.0
2018-08-29 02:20,50.6304516666667,-96.980765,7.8,11.5,201,987.80,14.6,78,17.93,0.0,1014.17,38.0
2018-08-29 02:30,50.6304533333333,-96.9807633333333,8.5,12.1,191,987.75,14.0,84,17.93,0.0,1014.14,38.0
2018-08-29 02:40,50.6304516666667,-96.9807616666667,12.9,16.1,180,987.41,13.5,90,17.92,0.0,1013.81,38.0
2018-08-29 02:50,50.6304516666667,-96.98076,12.9,16.2,174,987.34,13.4,92,17.91,0.0,1013.74,38.0
2018-08-29 03:00,50.6304516666667,-96.98076,5.4,12.2,194,987.54,13.7,93,17.90,0.0,1013.92,360.0
2018-08-29 03:10,50.6304366666667,-96.9807583333333,5.5,11.7,195,987.69,13.5,89,17.90,0.0,1014.09,360.0
2018-08-29 03:20,50.63044,-96.98076,6.9,12.9,173,987.70,13.7,87,17.89,0.0,1014.10,360.0
2018-08-29 03:30,50.63044,-96.9807583333333,6.9,8.8,180,987.71,13.7,92,17.89,0.0,1014.11,360.0
2018-08-29 03:40,50.6304433333333,-96.98076,4.9,7.1,194,987.73,13.7,95,17.89,0.0,1014.14,360.0
2018-08-29 03:50,50.6304433333333,-96.9807616666667,5.2,8.2,182,987.65,13.5,97,17.90,0.0,1014.08,360.0
2018-08-29 04:00,50.6304433333333,-96.9807633333333,6.5,8.5,184,987.55,13.4,95,17.90,0.0,1014.00,0.0
2018-08-29 04:10,50.6304433333333,-96.9807633333333,5.9,8.0,195,987.59,13.5,94,18.01,0.0,1014.07,0.0
2018-08-29 04:20,50.6304416666667,-96.9807633333333,5.8,7.9,206,987.57,13.2,95,17.89,0.0,1014.09,0.0
2018-08-29 04:30,50.6304416666667,-96.980765,6.2,8.6,201,987.55,13.1,96,17.88,0.0,1014.09,0.0
2018-08-29 04:40,50.6304416666667,-96.980765,7.1,8.9,193,987.48,13.2,94,17.88,0.0,1014.02,0.0
2018-08-29 04:50,50.6304416666667,-96.980765,7.4,9.6,190,987.40,13.2,95,17.88,0.0,1013.93,0.0
2018-08-29 05:00,50.6304416666667,-96.9807633333333,7.7,9.4,190,987.37,13.1,97,17.88,0.0,1013.92,167.4
2018-08-29 05:10,50.6304416666667,-96.9807633333333,7.8,10.1,189,987.31,13.0,99,17.88,0.0,1013.85,167.4
2018-08-29 05:20,50.6304416666667,-96.9807633333333,7.8,10.4,191,987.26,12.9,99,17.88,0.0,1013.79,167.4
2018-08-29 05:30,50.6304416666667,-96.980765,8.3,10.4,187,987.23,12.9,99,17.87,0.0,1013.77,167.4
2018-08-29 05:40,50.6304416666667,-96.9807766666667,7.6,11.0,196,987.34,12.8,99,17.86,0.0,1013.90,167.4
2018-08-29 05:50,50.6304416666667,-96.9807783333333,7.8,9.7,202,987.34,12.7,99,17.85,0.0,1013.91,167.4
2018-08-29 06:00,50.6304416666667,-96.98078,7.9,11.5,208,987.43,12.7,99,17.85,0.0,1013.99,234.7
2018-08-29 06:10,50.6304433333333,-96.980775,8.5,13.8,217,987.58,12.7,99,17.84,0.0,1014.15,234.7
2018-08-29 06:20,50.63046,-96.980755,9.7,13.7,232,987.74,12.7,100,17.83,0.0,1014.33,234.7
2018-08-29 06:30,50.630455,-96.980765,7.0,10.7,243,987.66,12.6,100,17.82,0.0,1014.25,234.7
2018-08-29 06:40,50.63045,-96.980765,4.1,6.5,237,987.42,12.5,100,17.80,0.0,1014.01,234.7
2018-08-29 06:50,50.6304566666667,-96.98082,4.9,6.2,208,987.33,12.5,100,17.80,0.0,1013.92,234.7
2018-08-29 07:00,50.6304483333333,-96.9807716666667,5.3,6.9,214,987.32,12.5,100,17.80,0.0,1013.91,347.4
2018-08-29 07:10,50.630445,-96.9807733333333,5.0,6.5,213,987.23,12.5,100,17.80,0.0,1013.82,347.4
2018-08-29 07:20,50.6304383333333,-96.98077,4.1,5.4,221,987.20,12.5,100,17.80,0.0,1013.79,347.4
2018-08-29 07:30,50.6304366666667,-96.9807683333333,4.3,5.6,225,987.22,12.5,100,17.80,0.0,1013.81,347.4
2018-08-29 07:40,50.6304033333333,-96.9807483333333,3.9,5.5,246,987.14,12.4,100,17.80,0.0,1013.74,347.4
2018-08-29 07:50,50.6304333333333,-96.9807666666667,3.8,5.4,235,987.13,12.3,100,17.80,0.0,1013.74,347.4
2018-08-29 08:00,50.6304416666667,-96.98077,3.0,4.4,222,986.99,12.2,100,17.80,0.0,1013.61,0.0
2018-08-29 08:10,50.6304383333333,-96.9807716666667,3.3,5.0,219,986.88,12.2,100,17.80,0.0,1013.49,0.0
2018-08-29 08:20,50.6304366666667,-96.98077,5.1,6.8,213,987.02,12.2,100,17.80,0.0,1013.63,0.0
2018-08-29 08:30,50.6304366666667,-96.9807683333333,5.2,6.5,208,987.07,12.2,100,17.80,0.0,1013.70,0.0
2018-08-29 08:40,50.6304383333333,-96.98077,4.4,5.7,217,987.11,12.1,100,17.80,0.0,1013.74,0.0
2018-08-29 08:50,50.6304383333333,-96.98077,3.9,5.8,223,987.07,12.1,100,17.79,0.0,1013.69,0.0
2018-08-29 09:00,50.6304366666667,-96.9807716666667,3.7,5.3,227,987.05,12.1,100,17.79,0.0,1013.67,119.2
2018-08-29 09:10,50.6304416666667,-96.9807816666667,4.6,7.2,226,987.08,12.1,100,17.78,0.0,1013.70,119.2
2018-08-29 09:20,50.6304366666667,-96.980765,4.6,6.7,223,987.12,12.2,100,17.78,0.0,1013.75,119.2
2018-08-29 09:30,50.6304366666667,-96.9807733333333,4.7,6.6,215,987.17,12.1,100,17.77,0.0,1013.80,119.2
2018-08-29 09:40,50.630445,-96.9807783333333,5.0,7.0,226,987.23,12.1,100,17.77,0.0,1013.87,119.2
2018-08-29 09:50,50.6304416666667,-96.9807733333333,5.3,7.3,229,987.23,12.2,100,17.76,0.0,1013.88,119.2
2018-08-29 10:00,50.6304416666667,-96.9807733333333,5.3,8.1,239,987.20,12.3,100,17.76,0.0,1013.83,360.0
2018-08-29 10:10,50.63044,-96.9807733333333,4.7,6.8,229,987.22,12.2,100,17.75,0.0,1013.85,360.0
2018-08-29 10:20,50.6304383333333,-96.98077,5.3,7.5,220,987.34,12.2,100,17.75,0.0,1013.99,360.0
2018-08-29 10:30,50.6304383333333,-96.9807683333333,4.7,7.2,225,987.40,12.1,100,17.74,0.0,1014.05,360.0
2018-08-29 10:40,50.6304383333333,-96.9807666666667,4.9,6.7,240,987.37,12.0,100,17.74,0.0,1014.03,360.0
2018-08-29 10:50,50.6304383333333,-96.98077,4.8,6.4,240,987.40,11.9,100,17.74,0.0,1014.07,360.0
2018-08-29 11:00,50.6304366666667,-96.9807683333333,4.8,6.3,243,987.47,11.7,100,17.73,0.0,1014.15,142.0
2018-08-29 11:10,50.6304383333333,-96.9807683333333,4.0,5.8,245,987.50,11.7,100,17.72,0.0,1014.17,142.0
2018-08-29 11:20,50.6304416666667,-96.980795,4.0,6.4,248,987.54,11.6,100,17.72,0.0,1014.22,142.0
2018-08-29 11:30,50.63044,-96.980765,4.3,6.4,244,987.61,11.5,99,17.70,0.0,1014.30,142.0
2018-08-29 11:40,50.6304433333333,-96.9807683333333,4.0,5.9,238,987.72,11.5,99,17.69,0.0,1014.41,142.0
2018-08-29 11:50,50.6304433333333,-96.9807683333333,4.1,5.3,235,987.76,11.4,99,17.69,0.0,1014.45,142.0
2018-08-29 12:00,50.6304416666667,-96.9807716666667,4.4,6.1,225,987.92,11.3,99,17.69,0.0,1014.62,38.0
2018-08-29 12:10,50.63044,-96.98077,4.5,6.3,235,987.94,11.2,99,17.68,0.0,1014.64,38.0
2018-08-29 12:20,50.6304416666667,-96.9807683333333,5.0,8.5,253,987.95,11.2,99,17.67,0.0,1014.66,38.0
2018-08-29 12:30,50.6304416666667,-96.9807683333333,5.2,7.9,252,987.98,11.2,99,17.66,0.0,1014.70,38.0
2018-08-29 12:40,50.6304416666667,-96.9807683333333,4.8,7.3,247,988.10,11.1,99,17.66,0.0,1014.84,38.0
2018-08-29 12:50,50.6304416666667,-96.9807683333333,4.5,6.4,242,988.22,10.9,99,17.65,0.0,1014.97,38.0
2018-08-29 13:00,50.6304416666667,-96.9807683333333,5.1,7.1,236,988.35,10.6,99,17.65,0.0,1015.13,90.0
2018-08-29 13:10,50.6304416666667,-96.9807666666667,5.1,7.9,237,988.44,10.7,99,17.64,0.0,1015.22,90.0
2018-08-29 13:20,50.6304416666667,-96.9807666666667,5.3,8.6,248,988.55,10.8,99,17.63,0.0,1015.33,90.0
2018-08-29 13:30,50.6304416666667,-96.9807666666667,4.5,6.8,245,988.60,11.0,99,17.63,0.0,1015.37,90.0
2018-08-29 13:40,50.6304416666667,-96.9807666666667,4.5,7.0,268,988.59,11.3,98,17.63,0.0,1015.35,90.0
2018-08-29 13:50,50.6304416666667,-96.9807666666667,5.2,8.4,281,988.53,11.6,96,17.62,0.0,1015.28,90.0
2018-08-29 14:00,50.6304433333333,-96.980785,4.9,7.8,279,988.55,11.9,94,17.62,0.0,1015.28,291.5
2018-08-29 14:10,50.6304433333333,-96.9807833333333,4.3,8.0,277,988.58,12.5,91,17.60,0.0,1015.29,291.5
2018-08-29 14:20,50.63043,-96.9807766666667,6.0,10.1,275,988.52,12.8,87,17.59,0.0,1015.21,291.5
2018-08-29 14:30,50.6304383333333,-96.980785,4.6,8.5,269,988.52,13.1,84,17.59,0.0,1015.20,291.5
2018-08-29 14:40,50.63042,-96.98078,5.1,7.6,275,988.58,13.4,80,17.59,0.0,1015.27,291.5
2018-08-29 14:50,50.6304316666667,-96.9807733333333,4.7,8.7,255,988.67,13.7,77,17.59,0.0,1015.36,291.5
2018-08-29 15:00,50.6304316666667,-96.9807716666667,6.3,9.9,257,988.75,13.8,74,17.60,0.0,1015.42,142.0
2018-08-29 15:10,50.63043,-96.9807733333333,5.4,9.8,260,988.83,14.0,73,17.62,0.0,1015.49,142.0
2018-08-29 15:20,50.6304333333333,-96.9807733333333,5.5,8.0,248,988.92,14.2,71,17.65,0.0,1015.57,142.0
2018-08-29 15:30,50.6304333333333,-96.9807716666667,4.3,7.5,267,988.87,14.5,70,17.67,0.0,1015.49,142.0
2018-08-29 15:40,50.630435,-96.98077,3.8,7.2,252,988.89,14.7,69,17.70,0.0,1015.49,142.0
2018-08-29 15:50,50.6304466666667,-96.98078,4.3,8.5,252,988.98,14.8,68,17.72,0.0,1015.55,142.0
2018-08-29 16:00,50.6304416666667,-96.9807633333333,3.9,8.0,232,988.97,15.0,65,17.73,0.0,1015.51,0.0
2018-08-29 16:10,50.63043,-96.9807683333333,4.8,7.8,235,988.96,15.2,62,17.74,0.0,1015.48,0.0
2018-08-29 16:20,50.6304316666667,-96.9807666666667,4.6,8.1,238,989.01,15.4,59,17.80,0.0,1015.51,0.0
2018-08-29 16:30,50.6304333333333,-96.9807683333333,4.0,8.6,213,989.05,15.6,57,17.87,0.0,1015.53,0.0
2018-08-29 16:40,50.630435,-96.9807683333333,3.3,7.2,248,989.03,15.9,53,17.89,0.0,1015.48,0.0
2018-08-29 16:50,50.6304366666667,-96.9807716666667,3.5,8.3,227,989.01,16.1,54,17.88,0.0,1015.44,0.0
2018-08-29 17:00,50.63043,-96.9807866666667,5.9,10.2,244,989.00,16.4,49,17.87,0.0,1015.41,203.5
2018-08-29 17:10,50.6304533333333,-96.9807766666667,5.0,9.7,278,988.91,16.7,48,17.89,0.0,1015.29,203.5
2018-08-29 17:20,50.630445,-96.9807733333333,5.1,9.3,236,988.95,16.7,48,17.94,0.0,1015.32,203.5
2018-08-29 17:30,50.63044,-96.9807683333333,5.8,9.7,240,988.83,16.8,48,18.03,0.0,1015.18,203.5
2018-08-29 17:40,50.6304433333333,-96.9807716666667,6.1,10.1,239,988.74,16.9,48,18.12,0.0,1015.08,203.5
2018-08-29 17:50,50.6304433333333,-96.980775,5.6,11.5,248,988.55,17.2,49,18.18,0.0,1014.86,203.5
2018-08-29 18:00,50.6304433333333,-96.9807733333333,3.8,7.7,227,988.52,17.3,50,18.21,0.0,1014.82,38.0
2018-08-29 18:10,50.6304366666667,-96.9807716666667,4.2,9.7,245,988.46,17.6,49,18.26,0.0,1014.73,38.0
2018-08-29 18:20,50.63044,-96.980765,7.5,10.9,217,988.33,17.7,47,18.27,0.0,1014.59,38.0
2018-08-29 18:30,50.6304416666667,-96.980775,7.7,11.6,218,988.30,17.6,48,18.28,0.0,1014.54,38.0
2018-08-29 18:40,50.63044,-96.9807716666667,7.1,12.3,243,988.27,18.0,45,18.35,0.0,1014.49,38.0
2018-08-29 18:50,50.6304533333333,-96.9807833333333,6.3,11.8,233,988.26,18.1,46,18.44,0.0,1014.46,38.0
2018-08-29 19:00,50.63045,-96.980775,7.1,11.6,225,988.23,18.2,47,18.57,0.0,1014.41,360.0
2018-08-29 19:10,50.6304416666667,-96.9807716666667,5.7,9.5,193,988.15,18.1,46,18.61,0.0,1014.33,360.0
2018-08-29 19:20,50.63044,-96.9807716666667,6.9,10.0,259,988.05,18.4,47,18.56,0.0,1014.21,360.0
2018-08-29 19:30,50.63043,-96.980775,3.4,8.5,234,988.03,18.9,46,18.54,0.0,1014.16,360.0
2018-08-29 19:40,50.6304233333333,-96.9807783333333,5.7,12.1,231,987.99,19.1,43,18.53,0.0,1014.10,360.0
2018-08-29 19:50,50.6304333333333,-96.9807716666667,9.4,16.9,212,987.88,19.0,43,18.46,0.0,1013.99,360.0
2018-08-29 20:00,50.6304333333333,-96.9807666666667,8.4,12.2,239,987.84,19.2,41,18.40,0.0,1013.92,72.3
2018-08-29 20:10,50.630435,-96.9807666666667,6.6,12.6,234,987.72,19.3,42,18.50,0.0,1013.79,72.3
2018-08-29 20:20,50.6304383333333,-96.9807633333333,5.4,14.1,217,987.63,19.3,42,18.56,0.0,1013.70,72.3
2018-08-29 20:30,50.63044,-96.9807633333333,6.6,11.7,234,987.58,19.8,41,18.56,0.0,1013.62,72.3
2018-08-29 20:40,50.63045,-96.9807566666667,5.7,9.7,239,987.51,19.8,41,18.51,0.0,1013.53,72.3
2018-08-29 20:50,50.630445,-96.980765,7.1,13.0,219,987.42,19.9,41,18.50,0.0,1013.43,72.3
2018-08-29 21:00,50.6304466666667,-96.9807666666667,6.5,10.9,239,987.39,20.0,40,18.57,0.0,1013.40,12.6
2018-08-29 21:10,50.6304483333333,-96.9807666666667,4.9,8.8,232,987.33,20.1,41,18.63,0.0,1013.32,12.6
2018-08-29 21:20,50.630445,-96.980765,5.5,9.7,209,987.27,20.2,41,18.73,0.0,1013.23,12.6
2018-08-29 21:30,50.6304483333333,-96.9807833333333,6.1,10.1,189,987.18,20.2,41,18.76,0.0,1013.14,12.6
2018-08-29 21:40,50.630445,-96.9807616666667,8.1,13.3,189,987.15,20.1,40,18.73,0.0,1013.11,12.6
2018-08-29 21:50,50.630445,-96.9807633333333,7.7,10.2,210,987.14,20.4,39,18.61,0.0,1013.08,12.6
2018-08-29 22:00,50.630445,-96.9807616666667,5.9,9.6,197,987.10,20.4,40,18.54,0.0,1013.03,167.4
2018-08-29 22:10,50.6304466666667,-96.9807633333333,6.4,10.9,185,986.99,20.4,39,18.59,0.0,1012.92,167.4
2018-08-29 22:20,50.6304466666667,-96.980765,5.2,9.7,165,986.94,20.4,41,18.77,0.0,1012.85,167.4
2018-08-29 22:30,50.630445,-96.9807666666667,8.5,12.3,200,986.87,20.7,37,18.82,0.0,1012.76,167.4
2018-08-29 22:40,50.6304466666667,-96.9807766666667,7.0,10.7,203,986.82,20.9,38,18.68,0.0,1012.70,167.4
2018-08-29 22:50,50.6304516666667,-96.9807716666667,8.5,12.5,189,986.77,20.8,42,18.69,0.0,1012.64,167.4
2018-08-29 23:00,50.6304483333333,-96.98077,9.4,14.0,172,986.67,20.6,43,18.93,0.0,1012.55,18.9
2018-08-29 23:10,50.6304466666667,-96.980765,7.4,10.3,180,986.69,20.8,43,19.09,0.0,1012.56,18.9
2018-08-29 23:20,50.630445,-96.9807633333333,8.5,11.9,182,986.56,20.8,42,19.08,0.0,1012.42,18.9
2018-08-29 23:30,50.630445,-96.98076,6.9,9.2,179,986.52,20.9,43,19.09,0.0,1012.38,18.9
2018-08-29 23:40,50.630445,-96.9807616666667,7.2,8.9,153,986.52,20.6,49,19.07,0.0,1012.38,18.9
2018-08-29 23:50,50.6304416666667,-96.9807583333333,8.1,10.8,166,986.52,20.3,49,18.99,0.0,1012.40,18.9
